Other Public Products
Issued by NWS Grand Forks, ND

Home | Current Version | Previous Version | Text Only | Print | Product List | Glossary On
Versions: 1 2 3 4 5 6 7 8 9 10 11 12 13 14 15 16 17 18 19 20 21 22 23 24 25 26 27 28 29 30 31 32 33 34 35 36 37 38 39 40 41 42 43 44 45 46 47 48 49 50
000
FPUS83 KFGF 310831
OPUFGF
PRAIRIE TO PINES WEATHER ROUNDUP
NATIONAL WEATHER SERVICE EASTERN NORTH DAKOTA/GRAND FORKS ND
300 AM CDT FRI OCT 31 2014

 **SATELLITE DATA USED TO AUGMENT SKY COVER AT AUTOMATED STATIONS**
 *****  WEATHER ACROSS EASTERN NORTH DAKOTA  *****

CITY           SKY/WX    TMP DP  RH WIND       PRES   REMARKS
GRAND FORKS    CLEAR     17  13  84 NW6       30.61R WCI   9
GRAND FORKS AF CLEAR     17  14  88 N6        30.61S WCI   9
GRAND CITY NWS   N/A     18 N/A N/A VRB6        N/A  WCI   9
BUXTON           N/A     19  18  95 NW8         N/A  WCI   9
DEVILS LAKE    PTCLDY    18   9  68 CALM      30.56S
FARGO          CLEAR     20  16  84 NW8       30.60R WCI  10
WAHPETON ARPT  SUNNY     18  14  86 N7        30.59R WCI   8
$$

 *****  WEATHER ACROSS CENTRAL AND WESTERN NORTH DAKOTA  *****

CITY           SKY/WX    TMP DP  RH WIND       PRES   REMARKS
JAMESTOWN      CLEAR     19  15  84 NW3       30.58R
BISMARCK       PTCLDY    19  17  92 NE6       30.59S WCI  11
MINOT          PTCLDY    15  11  83 SE6       30.55S WCI   6
MINOT AFB      PTCLDY    15  15  98 SE6       30.54F WCI   7
GARRISON         N/A     21  18  88 SE7       30.53F WCI  12
WILLISTON      CLOUDY    30  23  75 SE13G20   30.45F WCI  20
DICKINSON      CLOUDY    29  24  82 SE17      30.46F WCI  17
HETTINGER      CLOUDY    29  24  82 SE15      30.50S WCI  18
$$

 *****  OTHER OBSERVATIONS NORTHEAST NORTH DAKOTA  *****

CITY           SKY/WX    TMP DP  RH WIND       PRES   REMARKS
WALHALLA       FAIR      14  14 100 CALM      30.61F
LANGDON        FAIR       9   5  85 CALM      30.56F
CAVALIER       FAIR      19  16  86 CALM      30.62S
GRAFTON        FAIR      18  14  86 N5        30.62S WCI  11
CANDO          FAIR      12  10  92 W3        30.59S
FORT TOTTEN    NOT AVBL
ROLLA          FAIR      10   9  92 SW6       30.57S WCI   1
RUGBY          FAIR      19  16  86 SE3       30.58S
 ***** THE ABOVE OBSERVATIONS ARE NON NWS ARE NOT QUALITY
        CONTROLLED AND MAY MIS-REPORT RAIN FOR SNOW...
$$

 *****  OTHER OBSERVATIONS SOUTHEAST NORTH DAKOTA *****

CITY           SKY/WX    TMP DP  RH WIND       PRES   REMARKS
COOPERSTOWN    NOT AVBL
VALLEY CITY    FAIR      18  18 100 N7        30.58S WCI   8
OAKES            N/A     19  18  93 NW6       30.58S WCI  11
GWINNER        SUNNY     23  18  80 N8        30.59S WCI  14
SHEYENNE NWR     N/A     20  15  81 N3        29.95
BUFFALO        NOT AVBL
WYNDMERE         N/A     19  18  93 N5          N/A  WCI  13
 ***** THE ABOVE OBSERVATIONS ARE NON NWS ARE NOT QUALITY
       CONTROLLED AND MAY MIS-REPORT RAIN FOR SNOW...
$$

  *****  WEATHER ACROSS NORTHERN MINNESOTA  *****

CITY           SKY/WX    TMP DP  RH WIND       PRES   REMARKS
FLAG ISLAND    MOCLDY    28  19  69 N7        30.57R WCI  21
WARROAD        CLEAR     21  18  86 NW8       30.58R WCI  12
ROSEAU         CLEAR     21  16  79 W6        30.59R WCI  14
HALLOCK        CLEAR     18  14  86 N5        30.61F WCI  11
THF RVR FALLS  CLEAR     21  18  86 N8        30.58R WCI  12
HALSTAD          N/A     17  14  88 N8          N/A  WCI   7
FOSSTON        CLEAR     16  16 100 N7        30.57R WCI   6
BAUDETTE       CLEAR     26  17  68 N6        30.55R WCI  19
WASKISH        MOCLDY    25  18  74 CALM      30.55R
CROOKSTON      CLEAR     18  16  93 N5        30.61R WCI  11
$$
  *****  WEATHER ACROSS CENTRAL AND WEST MINNESOTA  *****

CITY           SKY/WX    TMP DP  RH WIND       PRES   REMARKS
BEMIDJI        PTCLDY    25  17  69 N7        30.52S WCI  18
PARK RAPIDS    CLEAR     26  16  65 N7        30.50R WCI  18
WADENA         CLEAR     19  16  86 NW6       30.51R WCI  11
DETROIT LAKES  CLEAR     23  21  93 N6        30.55R WCI  16
MOORHEAD       CLEAR     19  18  93 N6        30.60R WCI  11
FERGUS FALLS   CLEAR     18  14  86 NW9       30.58R WCI   6
ELBOW LAKE     FAIR      23  21  91 NW7       30.54R WCI  15
MORRIS MN      CLEAR     21  19  93 NW9       30.53R WCI  11
STAPLES        CLEAR     19  16  86 N5        30.50R WCI  13
WHEATON        CLEAR     21  18  86 NW8       30.59R WCI  12
$$
  *****  WEATHER ELSEWHERE ACROSS MINNESOTA  *****

CITY           SKY/WX    TMP DP  RH WIND       PRES   REMARKS
DULUTH         CLOUDY    28  16  60 N14G26    30.41R WCI  17
INTRNTL FALLS  MOCLDY    28  16  60 N12       30.52R WCI  18
ELY            MOCLDY    25  18  74 N8        30.44R WCI  16
CLOQUET        CLOUDY    28  16  59 N12G21    30.44R WCI  18
BRAINERD       PTCLDY    27  16  63 N15       30.49R WCI  15
HIBBING        CLOUDY    27  16  63 N15G25    30.46R WCI  15
ALEXANDRIA     CLEAR     27  19  72 N12G20    30.51R WCI  17
SAINT CLOUD    CLEAR     28  16  60 N8        30.48R WCI  20
MINNEAPOLIS    CLEAR     29  15  56 N17G25    30.44R WCI  17
$$

  *****  WEATHER ACROSS SOUTH DAKOTA  *****

CITY           SKY/WX    TMP DP  RH WIND       PRES   REMARKS
SIOUX FALLS    CLEAR     25  18  74 N9        30.50S WCI  15
BROOKINGS      NOT AVBL
WATERTOWN      CLEAR     18  16  92 N8        30.51S WCI   8
HURON          CLEAR     18  15  88 NW8       30.58R WCI   8
SISSETON         N/A     21  18  88 N8        30.57R WCI  11
ABERDEEN       CLEAR     18  14  84 NW6       30.60R WCI  10
MITCHELL       CLEAR     24  20  84 N9        30.57S WCI  14
PIERRE         PTCLDY    19  15  84 CALM      30.57S
MOBRIDGE       PTCLDY    25  20  81 E8        30.55S WCI  16
RAPID CITY     CLOUDY    30  29  96 SE13      30.48F FOG     WCI  20
$$

  *****  SOME WEATHER IN NEARBY STATES *****

CITY           SKY/WX    TMP DP  RH WIND       PRES   REMARKS
GLASGOW MT     PTCLDY    34  29  82 SE20      30.27F WCI  23
GREAT FALLS MT CLOUDY    50  32  50 SE14      29.96F
CHEYENNE WY    CLEAR     35  27  72 S13       30.40F
SCOTTSBLUFF NE CLEAR     34  30  85 E9        30.43F
OMAHA NE       MOCLDY    34  22  61 N23G32    30.46R WCI  22
DES MOINES IA  PTCLDY    39  22  50 N20G29    30.35R
DAVENPORT IA   CLOUDY    43  26  51 N26G32    30.15R
CHICAGO IL     CLOUDY    44  33  65 NW14G29   30.03R
EAU CLAIRE WI  CLEAR     30  19  63 N12       30.32R WCI  20
LA CROSSE WI   MOCLDY    34  19  54 N18G28    30.28R WCI  23
$$

  *****  SOME NATIONAL WEATHER *****

CITY           SKY/WX    TMP DP  RH WIND       PRES   REMARKS
LA GUARDIA NY  MOCLDY    46  35  65 N7        30.01F
RALEIGH NC     PTCLDY    45  40  82 NE7       29.98S
ATLANTA GA     PTCLDY    46  40  79 W8        29.95F
NEW ORLEANS LA PTCLDY    55  48  77 NW5       30.04F
OKLAHOMA CITY  CLEAR     55  36  48 N14       30.27R
ALBUQUERQUE NM CLEAR     56  24  29 E17       30.33S
SALT LAKE CITY MOCLDY    52  30  43 S10       30.07F
LOS ANGELES CA PTCLDY    65  61  87 CALM      29.96F
BOISE ID       CLOUDY    50  42  74 CALM      29.83F
SEATTLE WA     RAIN      52  51  97 SW5       29.78F FOG
$$

*** WEATHER ACROSS MANITOBA...SASKATCHEWAN AND ONTARIO ***
                ***ONTARIO***

CITY           SKY/WX    TMP DP  RH WIND       PRES   REMARKS
GERALDTON      LGT SNOW  25  23  93 N12G17    30.32R WCI  14
THUNDER BAY    FLURRIES  28  21  74 N10G20    30.40R WCI  19
SIOUX LOOKOUT  FLURRIES  25  19  80 N7        30.51R WCI  17
TORONTO        LGT RAIN  43  37  81 CALM      29.97F
BIG TROUT LK   LGT SNOW  19  18  93 NW8       30.45R WCI   9
PICKLE LAKE    NOT AVBL
DRYDEN         CLOUDY    25  19  80 N5        30.52R WCI  19
KENORA         FLURRIES  25  18  74 N7        30.55S WCI  17
$$
                *** MANITOBA***

CITY           SKY/WX    TMP DP  RH WIND       PRES   REMARKS
BRANDON        CLEAR     12   9  85 CALM      30.58F
DAUPHIN        CLEAR     18  14  86 VRB2      30.56F
ISLAND LAKE    CLEAR     25  18  74 W9        30.52S WCI  15
PILOT MOUND      N/A     14  14 100 SE3         N/A
THE PAS        CLEAR     21  19  93 S9        30.46F WCI  11
THOMPSON       CLEAR      9   5  85 S2        30.46F
WINNIPEG       CLEAR     16  14  93 W5        30.63S WCI   9
LYNN LAKE      CLEAR     19  18  93 S7        30.31F WCI  10
CHURCHILL      CLEAR     12   9  85 SW7       30.36F WCI   2
GILLAM         CLEAR     10   9  92 SW6       30.45F WCI   1
$$
                ***SASKATCHEWAN***

CITY           SKY/WX    TMP DP  RH WIND       PRES   REMARKS
ESTEVAN        PTCLDY    21  18  86 SE9       30.47F WCI  11
KINDERSLEY     CLOUDY    34  30  86 SE28G36   30.04F WCI  20
LLOYDMINSTER   CLOUDY    32  28  86 SE18G25   29.98F WCI  20
PRINCE ALBERT  CLEAR     27  23  86 S8        30.30F WCI  18
REGINA         MOCLDY    25  23  93 SE21G29   30.38F WCI  10



USA.gov is the U.S. government's official web portal to all federal, state and local government web resources and services.